Weather History for KRBO - March, 2013

Change the Weather History Date:

Saturday, March 23, 2013

  Actual Average (KCRP) Record (KCRP)
Temperature  
Mean Temperature 78 °F 68 °F  
Max Temperature 89 °F 77 °F 95 °F (1980)
Min Temperature 68 °F 58 °F 39 °F (1968)
Degree Days  
Heating Degree Days 0 2  
Month to date heating degree days 69  
Since 1 July heating degree days 869  
Cooling Degree Days 14 4  
Month to date cooling degree days 76  
Year to date cooling degree days 152  
Growing Degree Days 28 (Base 50)    
Moisture  
Dew Point 67 °F    
Average Humidity 72    
Maximum Humidity 94    
Minimum Humidity 36    
Precipitation  
Precipitation 0.00 in 0.06 in 1.04 in (1891)
Month to date precipitation 1.43  
Year to date precipitation 4.90  
Snow  
Snow 0.00 in - - ()
Month to date snowfall  
Since 1 July snowfall  
Snow Depth -    
Sea Level Pressure  
Sea Level Pressure 29.65 in    
Wind  
Wind Speed 9 mph (East)    
Max Wind Speed 16 mph    
Max Gust Speed 18 mph    
Visibility 8 miles    
Events      
T = Trace of Precipitation, MM = Missing Value Source: NWS Daily Summary

Daily Weather History Graph

Daily Weather History Graph

Search for Another Location

Airport or City:

Trip Planner

Search our weather history database for the weather conditions in past years. The results will help you decide how hot, cold, wet, or windy it might be!

Date:

Astronomy

Mar. 23, 2013 Rise Set
Actual Time 7:30 AM CDT 7:43 PM CDT
Civil Twilight 7:07 AM CDT 8:07 PM CDT
Nautical Twilight 6:40 AM CDT 8:34 PM CDT
Astronomical Twilight 6:12 AM CDT 9:02 PM CDT
Moon 4:27 PM CDT (3/23) 4:50 AM CDT (3/23)
Length of Visible Light 12h 59m
Length of Day
12h 12m
Waxing Gibbous, 85% of the Moon is Illuminated
Mar 23
Waxing Gibbous
Mar 27
Full
Apr 2
Last Quarter
Apr 10
New
Apr 18
First Quarter

Hourly Weather History & Observations

Time (CDT) Temp. Heat Index Dew Point Humidity Pressure Visibility Wind Dir Wind Speed Gust Speed Precip Events Conditions
12:15 AM 73.4 °F - 69.4 °F 87% 29.70 in 10.0 mi SE 13.8 mph - N/A   Overcast
12:35 AM 73.4 °F - 69.8 °F 88% 29.69 in 10.0 mi SE 12.7 mph 16.1 mph N/A   Overcast
12:55 AM 73.4 °F - 70.0 °F 89% 29.69 in 7.0 mi SE 13.8 mph - N/A   Overcast
1:15 AM 73.4 °F - 70.0 °F 89% 29.68 in 7.0 mi ESE 11.5 mph - N/A   Overcast
1:35 AM 73.4 °F - 70.0 °F 89% 29.67 in 7.0 mi SE 11.5 mph - N/A   Overcast
1:55 AM 73.4 °F - 70.2 °F 90% 29.67 in 7.0 mi ESE 12.7 mph - N/A   Overcast
2:15 AM 73.4 °F - 70.2 °F 90% 29.66 in 7.0 mi ESE 11.5 mph - N/A   Overcast
2:35 AM 73.6 °F - 70.2 °F 89% 29.66 in 7.0 mi SE 11.5 mph - N/A   Overcast
2:55 AM 73.6 °F - 70.2 °F 89% 29.66 in 7.0 mi SE 9.2 mph - N/A   Overcast
3:15 AM 73.4 °F - 70.2 °F 90% 29.66 in 7.0 mi SE 8.1 mph - N/A   Overcast
3:35 AM 73.6 °F - 70.2 °F 89% 29.66 in 7.0 mi SE 6.9 mph - N/A   Overcast
3:55 AM 73.4 °F - 70.0 °F 89% 29.66 in 7.0 mi SE 6.9 mph - N/A   Overcast
4:15 AM 73.4 °F - 69.8 °F 88% 29.65 in 7.0 mi SE 5.8 mph - N/A   Overcast
4:35 AM 73.4 °F - 69.8 °F 88% 29.65 in 7.0 mi ESE 3.5 mph - N/A   Overcast
4:55 AM 73.2 °F - 69.8 °F 89% 29.65 in 7.0 mi ESE 4.6 mph - N/A   Overcast
5:15 AM 73.4 °F - 69.8 °F 88% 29.65 in 7.0 mi ESE 4.6 mph - N/A   Overcast
5:35 AM 73.4 °F - 70.0 °F 89% 29.65 in 5.0 mi ESE 4.6 mph - N/A   Overcast
5:55 AM 73.4 °F - 70.0 °F 89% 29.65 in 5.0 mi ESE 4.6 mph - N/A   Overcast
6:15 AM 73.0 °F - 70.2 °F 91% 29.66 in 4.0 mi SE 4.6 mph - N/A   Overcast
6:35 AM 72.7 °F - 70.3 °F 92% 29.65 in 2.5 mi East 4.6 mph - N/A   Overcast
6:55 AM 72.7 °F - 70.5 °F 93% 29.66 in 2.0 mi East 5.8 mph - N/A   Overcast
7:15 AM 72.5 °F - 70.7 °F 94% 29.65 in 2.5 mi East 6.9 mph - N/A   Overcast
7:35 AM 72.5 °F - 70.5 °F 93% 29.65 in 3.0 mi East 5.8 mph - N/A   Overcast
7:55 AM 72.7 °F - 70.3 °F 92% 29.66 in 3.0 mi ENE 5.8 mph - N/A   Overcast
8:15 AM 73.2 °F - 70.3 °F 91% 29.66 in 4.0 mi East 5.8 mph - N/A   Overcast
8:35 AM 73.6 °F - 70.0 °F 88% 29.67 in 5.0 mi East 3.5 mph - N/A   Overcast
8:55 AM 74.3 °F - 70.0 °F 86% 29.68 in 5.0 mi Calm Calm - N/A   Overcast
9:15 AM 74.8 °F - 69.6 °F 84% 29.67 in 5.0 mi ESE 9.2 mph - N/A   Haze
9:35 AM 75.4 °F - 69.1 °F 81% 29.69 in 7.0 mi Calm Calm - N/A   Overcast
9:55 AM 76.8 °F - 68.9 °F 76% 29.69 in 7.0 mi Calm Calm - N/A   Overcast
10:15 AM 77.0 °F - 68.5 °F 75% 29.69 in 7.0 mi Calm Calm - N/A   Mostly Cloudy
10:35 AM 77.9 °F - 68.5 °F 73% 29.68 in 7.0 mi ENE 3.5 mph - N/A   Mostly Cloudy
10:55 AM 78.6 °F - 68.9 °F 72% 29.69 in 7.0 mi Calm Calm - N/A   Scattered Clouds
11:15 AM 79.3 °F - 68.4 °F 69% 29.70 in 7.0 mi Calm Calm - N/A   Mostly Cloudy
11:35 AM 79.7 °F - 68.2 °F 68% 29.70 in 7.0 mi WNW 4.6 mph - N/A   Mostly Cloudy
11:55 AM 79.2 °F - 68.0 °F 69% 29.70 in 7.0 mi Calm Calm - N/A   Overcast
12:15 PM 79.5 °F - 68.0 °F 68% 29.70 in 7.0 mi WNW 5.8 mph - N/A   Overcast
12:35 PM 78.4 °F - 66.9 °F 68% 29.69 in 7.0 mi North 16.1 mph - N/A   Mostly Cloudy
12:55 PM 77.0 °F - 64.8 °F 66% 29.70 in 7.0 mi North 16.1 mph - N/A   Mostly Cloudy
1:15 PM 78.1 °F - 65.5 °F 65% 29.68 in 7.0 mi NNE 9.2 mph - N/A   Scattered Clouds
1:35 PM 80.1 °F 82.0 °F 65.7 °F 61% 29.67 in 7.0 mi North 11.5 mph - N/A   Clear
1:55 PM 81.9 °F 83.7 °F 65.5 °F 57% 29.66 in 10.0 mi NNE 6.9 mph - N/A   Clear
2:15 PM 82.9 °F 84.8 °F 65.5 °F 55% 29.65 in 10.0 mi North 10.4 mph 16.1 mph N/A   Clear
2:35 PM 84.0 °F 85.8 °F 65.3 °F 53% 29.64 in 10.0 mi North 9.2 mph - N/A   Clear
2:55 PM 85.1 °F 86.6 °F 64.8 °F 50% 29.63 in 10.0 mi NNW 8.1 mph - N/A   Clear
3:15 PM 85.8 °F 86.8 °F 63.3 °F 47% 29.62 in 10.0 mi NNW 6.9 mph - N/A   Clear
3:35 PM 86.9 °F 87.8 °F 63.1 °F 45% 29.61 in 10.0 mi North 5.8 mph 9.2 mph N/A   Clear
3:55 PM 87.8 °F 87.9 °F 61.3 °F 41% 29.60 in 10.0 mi NNW 11.5 mph 18.4 mph N/A   Clear
4:15 PM 88.0 °F 88.1 °F 61.9 °F 41% 29.59 in 10.0 mi North 6.9 mph - N/A   Clear
4:35 PM 88.5 °F 88.3 °F 61.0 °F 39% 29.59 in 10.0 mi NW 5.8 mph - N/A   Clear
4:55 PM 88.3 °F 88.1 °F 60.6 °F 39% 29.58 in 10.0 mi NW 15.0 mph - N/A   Clear
5:15 PM 88.7 °F 88.0 °F 59.2 °F 37% 29.58 in 10.0 mi NNW 5.8 mph - N/A   Clear
5:35 PM 88.7 °F 88.0 °F 59.5 °F 37% 29.58 in 10.0 mi North 5.8 mph - N/A   Clear
5:55 PM 88.5 °F 88.1 °F 59.5 °F 38% 29.58 in 10.0 mi NNW 8.1 mph - N/A   Clear
6:15 PM 88.7 °F 88.0 °F 59.2 °F 37% 29.58 in 10.0 mi NNW 6.9 mph - N/A   Clear
6:35 PM 88.5 °F 87.5 °F 58.6 °F 36% 29.58 in 10.0 mi NNE 10.4 mph - N/A   Clear
6:55 PM 87.8 °F 86.9 °F 58.8 °F 37% 29.58 in 10.0 mi NNE 6.9 mph - N/A   Clear
7:15 PM 84.7 °F 86.1 °F 64.2 °F 50% 29.59 in 10.0 mi East 12.7 mph - N/A   Clear
7:35 PM 83.1 °F 84.8 °F 64.9 °F 54% 29.59 in 10.0 mi East 12.7 mph - N/A   Clear
7:55 PM 82.4 °F 84.1 °F 64.6 °F 55% 29.59 in 10.0 mi East 12.7 mph - N/A   Clear
8:15 PM 80.6 °F 82.4 °F 65.3 °F 59% 29.61 in 10.0 mi East 11.5 mph - N/A   Clear
8:55 PM 76.5 °F - 65.7 °F 69% 29.62 in 10.0 mi East 9.2 mph - N/A   Clear
9:15 PM 75.4 °F - 65.8 °F 72% 29.63 in 10.0 mi East 8.1 mph - N/A   Clear
9:35 PM 74.5 °F - 66.2 °F 75% 29.63 in 7.0 mi East 10.4 mph - N/A   Clear
9:55 PM 72.9 °F - 66.4 °F 80% 29.64 in 7.0 mi ESE 9.2 mph - N/A   Clear
10:15 PM 72.1 °F - 65.5 °F 79% 29.65 in 7.0 mi ESE 8.1 mph - N/A   Clear
10:35 PM 71.8 °F - 65.8 °F 81% 29.66 in 7.0 mi ESE 8.1 mph - N/A   Clear
10:55 PM 70.9 °F - 65.3 °F 82% 29.66 in 7.0 mi ESE 5.8 mph - N/A   Clear
11:15 PM 70.0 °F - 64.8 °F 83% 29.66 in 7.0 mi SE 4.6 mph - N/A   Clear
11:35 PM 69.1 °F - 63.9 °F 83% 29.66 in 7.0 mi SE 4.6 mph - N/A   Clear
11:55 PM 68.0 °F - 63.5 °F 85% 29.66 in 7.0 mi South 4.6 mph - N/A   Clear